Regional Weather Roundup
Issued by NWS

Home | Current Version | Previous Version | Graphics & Text | Print | Product List | Glossary On
Versions: 1 2 3 4 5 6 7 8 9 10 11 12 13 14 15 16 17 18 19 20 21 22 23 24 25 26 27 28 29 30 31 32 33 34 35 36 37 38 39 40 41 42 43 44 45 46 47 48 49 50
000
ASUS43 KLOT 311712
RWRIL

ILLINOIS REGIONAL WEATHER ROUNDUP
NATIONAL WEATHER SERVICE CHICAGO/ROMEOVILLE IL
1200 PM CDT FRI JUL 31 2015

NOTE: "FAIR" INDICATES FEW OR NO CLOUDS BELOW 12,000 FEET WITH NO
SIGNIFICANT WEATHER AND/OR OBSTRUCTIONS TO VISIBILITY.

* THESE STATIONS ARE NOT UNDER NWS QUALITY CONTROL. THEY ALSO MAY NOT
  REPORT WEATHER SUCH AS PRECIPITATION OR FOG.

ILZ001-002-007-009-015-016-024-311800-
NORTHWEST ILLINOIS

CITY           SKY/WX    TMP DP  RH WIND       PRES   REMARKS
MOLINE         SUNNY     87  57  35 NW14G20   30.06F HX  86
STERLING*      SUNNY     84  64  51 NW14      30.02F HX  86
SAVANNA*       SUNNY     84  57  40 NW9G21    30.04F HX  83
$$

ILZ003-004-008-010-011-017-018-311800-
NORTH CENTRAL ILLINOIS

CITY           SKY/WX    TMP DP  RH WIND       PRES   REMARKS
ROCKFORD       MOSUNNY   85  55  35 W24G30    30.03F HX  83
FREEPORT*      SUNNY     82  59  45 W20G26    30.05F HX  82
ROCHELLE*      SUNNY     82  59  45 NW13      30.04S HX  82
DE KALB*       SUNNY     82  59  44 W16G23    30.03F HX  82
PERU*          SUNNY     82  60  47 NW13      30.05S HX  83
$$

ILZ005-006-012>014-019>023-311800-
NORTHEAST ILLINOIS

CITY           SKY/WX    TMP DP  RH WIND       PRES   REMARKS
CHICAGO-OHARE  MOSUNNY   85  53  33 NW17G23   29.98F HX  83
CHICAGO-MIDWAY MOSUNNY   87  54  32 NW14G24   29.99F HX  85
AURORA         SUNNY     83  60  45 NW14G21   30.02F HX  83
LANSING*       MOSUNNY   85  60  41 W12G20    29.99F HX  85
JOLIET*        SUNNY     85  65  52 NW9       30.01F HX  87
WAUKEGAN       SUNNY     84  58  40 W9        29.97F HX  83
DUPAGE AIRPORT SUNNY     84  58  40 NW16G23   30.00F HX  83
KANKAKEE*      SUNNY     85  69  57 W13       30.02F HX  89
WHEELING       SUNNY     86  52  30 NW12G25   29.99F HX  84
MORRIS*        SUNNY     82  65  56 NW14      30.01F HX  84
ROMEOVILLE*    SUNNY     83  60  45 NW13      30.01F HX  83
NORTHERLY ISL    N/A     84  51  31 W13         N/A  HX  82
$$

LMZ740>746-311800-
SOUTHERN LAKE MICHIGAN

STATION/POSITION SKY/WX   TEMP    WIND        PRES    VSBY  WAVE
                          AIR SEA DIR/SP/G                  HT/PER
                          (F)     (DEG/KT/KT) (MB)    (MI)  (FT/S)
HARRISON CRIB              79     290/ 16/ 19   N/A
BURNHAM HARBOR             83     260/  8/ 16   N/A
CALUMET HARBOR             83     250/  7/ 10   N/A
BURNS HARBOR               77     290/ 11/ 15 1016.3S
MICHIGAN CITY              76     250/ 11/ 12   N/A
MICHIGAN CITY 6N           75 74  300/  8/ 10   N/A           2/ 3
ST. JOSEPH                 74 74  290/ 12/ 12   N/A           3/ 3
$$

ILZ025>027-034>036-040-047-049-050-058-095>099-311800-
WEST-CENTRAL ILLINOIS

CITY           SKY/WX    TMP DP  RH WIND       PRES   REMARKS
QUINCY         MOSUNNY   85  64  49 NW12      30.12S HX  86
GALESBURG*     SUNNY     83  67  59 W8        30.09S HX  85
MACOMB*        SUNNY     84  67  56 NW9       30.11F HX  86
JACKSONVILLE*  SUNNY     87  70  56 NW10      30.10F HX  91
PITTSFIELD*    SUNNY     86  65  48 W7        30.12F HX  88
$$

ILZ028>032-037-038-041>044-048-051>054-059>061-311800-
CENTRAL ILLINOIS

CITY           SKY/WX    TMP DP  RH WIND       PRES   REMARKS
PONTIAC        SUNNY     84  72  68 W13       30.05S HX  89
BLOOMINGTON    SUNNY     85  68  56 W17       30.09S HX  88
DECATUR        SUNNY     87  66  49 W14G20    30.09S HX  89
PEORIA         SUNNY     87  68  52 NW8       30.07F HX  90
LACON*         SUNNY     83  66  57 NW10G16   30.05S HX  85
LINCOLN*       SUNNY     88  65  46 NW8       30.07S HX  90
SPRINGFIELD    SUNNY     86  68  54 W10       30.09F HX  89
TAYLORVILLE    SUNNY     82  68  61 W5G16     30.10S HX  85
$$

ILZ033-039-045-046-055>057-062-063-311800-
EAST-CENTRAL ILLINOIS

CITY           SKY/WX    TMP DP  RH WIND       PRES   REMARKS
CHAMPAIGN      SUNNY     85  69  58 W10       30.08S HX  89
DANVILLE*      SUNNY     84  69  61 W10G16    30.03F HX  87
RANTOUL*       SUNNY     87  71  58 W10       30.06F HX  92
MATTOON        SUNNY     86  64  47 NW13G20   30.08F HX  87
PARIS*         SUNNY     85  69  58 W10       30.08F HX  88
$$

ILZ079-100>102-311800-
SOUTHWEST ILLINOIS

CITY           SKY/WX    TMP DP  RH WIND       PRES   REMARKS
ALTON          SUNNY     84  66  54 NW10      30.12F HX  86
BELLEVILLE     SUNNY     87  69  53 N6        30.10F HX  91
CAHOKIA*       SUNNY     91  61  36 N10       30.11F HX  91
SPARTA*        SUNNY     86  69  56 W3        30.12F HX  90
$$

ILZ064>066-069>071-074>076-080>082-084>086-088>090-092>094-311800-
SOUTH-CENTRAL ILLINOIS

CITY           SKY/WX    TMP DP  RH WIND       PRES   REMARKS
CARBONDALE     SUNNY     87  67  51 NE6       30.11F HX  90
CAIRO*         SUNNY     85  69  60 NE7       30.11F HX  88
EFFINGHAM*     SUNNY     86  61  42 W9G17     30.11S HX  86
MARION         SUNNY     86  66  51 N9        30.12F HX  88
MT. VERNON     SUNNY     86  64  48 N6        30.11F HX  87
CENTRALIA*     SUNNY     85  63  47 N7        30.10F HX  86
SALEM*         SUNNY     87  65  48 NW10      30.11F HX  89
METROPOLIS*    SUNNY     84  69  60 CALM      30.11F HX  88
$$

ILZ067-068-072-073-078-083-087-091-311800-
SOUTHEAST ILLINOIS

CITY           SKY/WX    TMP DP  RH WIND       PRES   REMARKS
LAWRENCEVILLE  SUNNY     86  63  45 N6        30.09S HX  87
FLORA*         SUNNY     85  66  53 N6        30.10F HX  88
FAIRFIELD*     SUNNY     85  69  58 N6        30.09F HX  89
HARRISBURG*    SUNNY     85  66  52 NW5       30.12S HX  87
ROBINSON*      SUNNY     84  67  55 NW5       30.09F HX  87
CARMI*         SUNNY     84  64  49 CALM      30.09F HX  85
$$

ABBREVIATIONS USED IN REMARKS
   TC - TEMPERATURE IN CELSIUS
  WCI - WIND CHILL INDEX
   HX - HEAT INDEX
  VSB - VISIBILITY
$$




USA.gov is the U.S. government's official web portal to all federal, state and local government web resources and services.